Location: Unspecified
(40.7945°N, 111.1337°W)
Time: 22:34:57
(UTC-06:00)

SR - Visible Passes

Search period start: 25 June 2019 00:00
Search period end: 05 July 2019 00:00
Orbit: 582 x 874 km, 66.7° (Epoch: 25 June)

Date Brightness Start Highest point End Pass type
(mag) Time Alt. Az. Time Alt. Az. Time Alt. Az.
25 Jun ? 03:01:35 15° ESE 03:02:27 16° ESE 03:05:03 10° ENE visible
25 Jun ? 04:41:00 16° WSW 04:44:02 44° NW 04:48:10 10° NNE visible
26 Jun ? 03:52:44 36° SSW 03:54:23 81° ESE 03:58:41 10° NNE visible
27 Jun ? 03:04:26 32° SE 03:04:54 33° ESE 03:08:46 10° NE visible
27 Jun ? 04:43:50 11° W 04:46:59 23° NW 04:50:28 10° N visible
28 Jun ? 02:16:06 15° E 02:16:06 15° E 02:18:00 10° ENE visible
28 Jun ? 03:55:30 31° WSW 03:57:08 47° NW 04:01:20 10° NNE visible
29 Jun ? 03:07:07 68° SSE 03:07:30 75° ESE 03:11:49 10° NNE visible
29 Jun ? 04:48:01 10° WNW 04:50:06 13° NW 04:52:14 10° NNW visible
30 Jun ? 02:18:43 29° E 02:18:43 29° E 02:21:50 10° NE visible
30 Jun ? 03:58:06 18° W 04:00:04 25° NW 04:03:41 10° N visible
01 Jul ? 01:30:16 12° E 01:30:16 12° E 01:30:55 10° ENE visible
01 Jul ? 03:09:40 47° W 03:10:15 51° WNW 03:14:30 10° NNE visible
02 Jul ? 02:21:11 60° ENE 02:21:11 60° ENE 02:24:55 10° NE visible
02 Jul ? 04:00:53 10° WNW 04:03:11 14° NW 04:05:32 10° N visible
03 Jul ? 01:32:39 23° ENE 01:32:39 23° ENE 01:34:55 10° NE visible
03 Jul ? 03:12:03 23° WNW 03:13:10 26° NW 03:16:52 10° N visible
04 Jul ? 02:23:30 55° NW 02:23:30 55° NW 02:27:39 10° NNE visible
